Regional Weather Roundup
Issued by NWS

Home | Current Version | Previous Version | Text Only | Print | Product List | Glossary On
Versions: 1 2 3 4 5 6 7 8 9 10 11 12 13 14 15 16 17 18 19 20 21 22 23 24 25 26 27 28 29 30 31 32 33 34 35 36 37 38 39 40 41 42 43 44 45 46 47 48 49 50
000
ASUS45 KBOI 310810
RWRID
WEATHER ROUNDUP FOR IDAHO
NATIONAL WEATHER SERVICE BOISE ID
200 AM MDT SUN AUG 31 2014

NOTE: "FAIR" INDICATES FEW OR NO CLOUDS BELOW 12000 FEET
WITH NO SIGNIFICANT WEATHER AND/OR OBSTRUCTIONS TO VISIBILITY

IDZ012-014-310900-
SOUTHWEST IDAHO


CITY           SKY/WX    TMP DP  RH WIND       PRES   REMARKS
BOISE          CLEAR     55  49  80 N3        29.96R
CALDWELL       CLEAR     55  43  62 W3        29.97S
MOUNTAIN HOME  PTCLDY    54  54  99 NW8       29.95S
$$

IDZ016-017-310900-
SOUTHCENTRAL IDAHO


CITY           SKY/WX    TMP DP  RH WIND       PRES   REMARKS
BURLEY         MOCLDY    54  48  80 SW14      29.94S
JEROME         LGT RAIN  54  49  83 SW13      29.96R
TWIN FALLS     CLOUDY    57  47  69 S12G21    29.98R
$$

IDZ019>023-310900-
SOUTHEAST IDAHO


CITY           SKY/WX    TMP DP  RH WIND       PRES   REMARKS
IDAHO FALLS    MOCLDY    55  44  66 N12       29.91R
POCATELLO      CLOUDY    58  51  78 SW18G28   29.94R
REXBURG        MOCLDY    51  44  77 NE8       29.93R
$$

IDZ006-010-011-018-031-032-310900-
CENTRAL IDAHO MOUNTAINS


CITY           SKY/WX    TMP DP  RH WIND       PRES   REMARKS
MCCALL         CLOUDY    50  45  83 CALM      29.97S
HAILEY         CLOUDY    57  41  54 N8        29.95S
STANLEY          N/A     45  43  93 CALM      30.02S
SALMON         CLOUDY    52  48  87 S6        29.93R
CHALLIS        LGT RAIN  51  47  86 E5        29.95S
$$

IDZ002-004-006-007-026-310900-
NORTHERN IDAHO


CITY           SKY/WX    TMP DP  RH WIND       PRES   REMARKS
LEWISTON       MOCLDY    64  48  56 S10       29.88S
LOWELL           N/A     59  58  96 CALM      29.93R
COEUR D`ALENE  CLOUDY    61  52  72 W3        29.87S
MULLAN PASS    MOCLDY    45  43  93 VRB6      29.95S
$$



USA.gov is the U.S. government's official web portal to all federal, state and local government web resources and services.